W7YP Weather Reports


Display with metric or nautical units.
time (UTC)temp
F
wind
direction
speed
MPH
gust
MPH
rain 1hr
in
rain 24hr
in
rain mn
in
humidity
%
barometer
mb
20260507235820 66 236 2.0 11.0 0.00 0.37 0.35 55 1012.9
20260507235311 66 25 2.0 11.0 0.00 0.37 0.35 53 1013.1
20260507234811 66 352 2.0 8.0 0.00 0.37 0.35 53 1013.1
20260507234312 66 327 2.0 11.0 0.00 0.37 0.35 53 1013.0
20260507233812 66 352 1.0 11.0 0.00 0.37 0.35 52 1013.1
20260507233306 66 237 2.0 6.0 0.00 0.37 0.35 51 1013.0
20260507232801 66 334 0.0 8.0 0.00 0.37 0.35 52 1013.1
20260507232301 66 55 2.0 8.0 0.00 0.37 0.35 51 1013.1
20260507232020 66 352 1.0 10.0 0.00 0.37 0.35 51 1013.3
20260507231528 66 32 4.0 11.0 0.00 0.37 0.35 49 1013.0
20260507230802 66 288 2.0 11.0 0.00 0.37 0.35 51 1013.1
20260507230605 67 0 0.0 7.0 0.00 0.37 0.35 51 1013.3
20260507230504 67 182 2.0 8.0 0.00 0.37 0.35 49 1013.4
20260507225741 67 180 1.0 8.0 0.00 0.37 0.35 50 1013.5
20260507224753 67 294 2.0 8.0 0.00 0.37 0.35 52 1013.5
20260507224253 67 238 1.0 10.0 0.00 0.37 0.35 47 1013.5
20260507223753 67 223 2.0 10.0 0.00 0.37 0.35 49 1013.6
20260507223248 67 306 1.0 5.0 0.00 0.37 0.35 51 1013.6
20260507222739 66 323 1.0 3.0 0.00 0.37 0.35 52 1013.5
20260507222228 66 313 0.0 9.0 0.00 0.37 0.35 52 1013.6
20260507221728 66 167 1.0 9.0 0.00 0.37 0.35 52 1013.7
20260507221232 66 148 2.0 12.0 0.00 0.37 0.35 52 1013.8
20260507220729 66 98 3.0 12.0 0.00 0.37 0.35 55 1013.7
20260507220230 66 352 0.0 7.0 0.00 0.37 0.35 54 1013.8
20260507215725 66 182 2.0 6.0 0.00 0.37 0.35 55 1013.7
20260507215224 66 12 1.0 5.0 0.00 0.37 0.35 57 1013.8
20260507214725 65 316 1.0 5.0 0.00 0.37 0.35 58 1013.9
20260507214225 65 332 0.0 6.0 0.00 0.37 0.35 58 1014.0
20260507213725 65 283 2.0 10.0 0.00 0.37 0.35 56 1014.1
20260507213228 65 187 3.0 13.0 0.00 0.37 0.35 54 1014.1
20260507212724 65 166 3.0 13.0 0.00 0.37 0.35 54 1014.3
20260507212220 66 234 2.0 8.0 0.00 0.37 0.35 58 1014.3
20260507211721 66 331 2.0 9.0 0.00 0.37 0.35 58 1014.1
20260507211221 66 288 2.0 9.0 0.00 0.37 0.35 61 1014.1
20260507210721 66 62 2.0 9.0 0.00 0.37 0.35 60 1014.1
20260507210656 66 209 2.0 8.0 0.00 0.37 0.35 61 1014.3
20260507205712 66 248 0.0 8.0 0.00 0.37 0.35 63 1014.4
20260507205211 66 179 1.0 6.0 0.00 0.37 0.35 59 1014.3
20260507204711 66 313 1.0 9.0 0.00 0.37 0.35 60 1014.4
20260507204207 66 91 2.0 9.0 0.00 0.37 0.35 59 1014.4
20260507203707 66 56 1.0 11.0 0.00 0.37 0.35 59 1014.5
20260507203207 65 180 2.0 11.0 0.00 0.37 0.35 60 1014.4
20260507202707 65 98 0.0 5.0 0.00 0.37 0.35 64 1014.6
20260507202653 65 325 1.0 6.0 0.00 0.37 0.35 62 1014.6
20260507201702 64 335 1.0 6.0 0.00 0.37 0.35 64 1014.6
20260507201157 63 225 0.0 5.0 0.00 0.37 0.35 68 1014.5
20260507200657 63 102 0.0 6.0 0.00 0.37 0.35 66 1014.6
20260507200153 63 230 1.0 5.0 0.00 0.37 0.35 67 1014.6
20260507195653 62 122 0.0 6.0 0.00 0.37 0.35 67 1014.6
20260507195153 62 209 3.0 6.0 0.00 0.37 0.35 68 1014.8
20260507194654 62 229 0.0 5.0 0.00 0.37 0.35 71 1014.7
20260507194412 61 337 1.0 3.0 0.00 0.37 0.35 71 1014.7
20260507193648 61 40 0.0 3.0 0.00 0.37 0.35 73 1014.8
20260507193149 61 36 0.0 3.0 0.00 0.37 0.35 74 1014.8
20260507192857 61 111 0.0 3.0 0.00 0.37 0.35 75 1014.8
20260507192139 60 88 0.0 5.0 0.00 0.37 0.35 78 1014.9
20260507191642 60 86 0.0 6.0 0.00 0.37 0.35 78 1014.9
20260507191401 60 109 1.0 6.0 0.00 0.37 0.35 81 1014.9
20260507190634 59 113 0.0 4.0 0.00 0.37 0.35 80 1015.0
20260507190129 59 211 1.0 4.0 0.00 0.37 0.35 79 1014.9
20260507185625 59 148 0.0 5.0 0.00 0.37 0.35 81 1015.1
20260507185125 59 203 1.0 5.0 0.00 0.37 0.35 81 1015.1
20260507184626 58 150 1.0 3.0 0.00 0.37 0.35 81 1015.3
20260507184353 58 205 0.0 3.0 0.00 0.37 0.35 83 1015.3
20260507183620 58 95 0.0 3.0 0.00 0.37 0.35 87 1015.3
20260507183116 57 101 0.0 6.0 0.00 0.37 0.35 87 1015.3
20260507182615 57 99 1.0 6.0 0.00 0.37 0.35 86 1015.4
20260507182116 56 116 0.0 3.0 0.00 0.37 0.35 88 1015.4
20260507181616 56 116 0.0 1.0 0.00 0.37 0.35 88 1015.4
20260507181116 56 117 0.0 0.0 0.00 0.37 0.35 89 1015.4
20260507180616 56 117 0.0 1.0 0.00 0.37 0.35 88 1015.5
20260507180112 56 117 0.0 1.0 0.00 0.37 0.35 88 1015.4
20260507175607 55 115 0.0 2.0 0.00 0.37 0.35 89 1015.4
20260507175553 55 115 0.0 2.0 0.00 0.37 0.35 88 1015.4
20260507174602 55 116 0.0 2.0 0.00 0.37 0.35 89 1015.3
20260507174102 55 116 0.0 3.0 0.00 0.37 0.35 89 1015.3
20260507173552 55 150 1.0 4.0 0.00 0.37 0.35 88 1015.4
20260507173055 55 163 0.0 4.0 0.00 0.37 0.35 88 1015.4
20260507172553 55 71 0.0 1.0 0.00 0.37 0.35 91 1015.3
20260507172048 55 70 0.0 4.0 0.00 0.37 0.35 92 1015.3
20260507171547 55 70 1.0 7.0 0.00 0.37 0.35 92 1015.4
20260507171306 54 133 0.0 7.0 0.00 0.37 0.35 94 1015.4
20260507170537 54 108 1.0 6.0 0.00 0.37 0.35 95 1015.4
20260507170303 53 58 0.0 2.0 0.00 0.37 0.35 96 1015.4
20260507165536 53 17 0.0 3.0 0.00 0.37 0.35 96 1015.5
20260507165030 53 139 0.0 3.0 0.00 0.37 0.35 97 1015.6
20260507164524 53 207 1.0 4.0 0.00 0.37 0.35 97 1015.6
20260507164024 53 69 1.0 6.0 0.00 0.37 0.35 98 1015.7
20260507163524 53 126 1.0 6.0 0.00 0.37 0.35 98 1015.7
20260507163024 52 117 0.0 2.0 0.00 0.37 0.35 98 1015.7
20260507162524 51 103 0.0 3.0 0.00 0.37 0.35 98 1015.7
20260507162025 51 104 1.0 3.0 0.00 0.37 0.35 98 1015.8
20260507161519 51 299 0.0 2.0 0.00 0.37 0.35 98 1015.8
20260507161240 51 299 0.0 1.0 0.00 0.37 0.35 98 1015.8
20260507160520 50 299 0.0 0.0 0.00 0.37 0.35 98 1015.8
20260507160015 50 299 0.0 0.0 0.00 0.37 0.35 98 1015.9
20260507155515 49 299 0.0 1.0 0.00 0.37 0.35 98 1015.9
20260507155016 49 299 0.0 2.0 0.00 0.37 0.35 98 1015.8
20260507154506 49 299 0.0 3.0 0.00 0.37 0.35 98 1015.7
20260507154006 49 299 0.0 3.0 0.01 0.37 0.35 98 1015.8
20260507153508 49 299 0.0 2.0 0.03 0.37 0.35 98 1015.7
20260507153231 49 299 0.0 0.0 0.05 0.37 0.35 97 1015.6
20260507152934 48 299 0.0 0.0 0.06 0.37 0.35 97 1015.6
20260507151941 48 299 0.0 1.0 0.06 0.37 0.35 97 1015.6
20260507151438 48 299 0.0 1.0 0.07 0.37 0.35 97 1015.6
20260507151410 48 299 0.0 0.0 0.07 0.37 0.35 97 1015.6
20260507150653 48 299 0.0 0.0 0.08 0.37 0.35 97 1015.5
20260507145916 48 299 0.0 1.0 0.08 0.37 0.35 97 1015.5
20260507145419 48 299 0.0 1.0 0.08 0.37 0.35 97 1015.5
20260507144912 48 299 0.0 0.0 0.08 0.37 0.35 97 1015.4
20260507144409 47 299 0.0 0.0 0.08 0.37 0.35 97 1015.5
20260507143856 47 299 0.0 0.0 0.06 0.35 0.34 97 1015.3
20260507143354 47 299 0.0 0.0 0.04 0.33 0.32 97 1015.3
20260507142852 47 299 0.0 0.0 0.03 0.32 0.30 97 1015.3
20260507142353 47 299 0.0 0.0 0.02 0.31 0.29 97 1015.4
20260507141852 47 299 0.0 0.0 0.02 0.31 0.29 97 1015.3
20260507141351 47 299 0.0 0.0 0.01 0.30 0.28 97 1015.3
20260507140842 47 299 0.0 0.0 0.01 0.30 0.28 97 1015.3
20260507140613 47 299 0.0 0.0 0.00 0.29 0.27 97 1015.1
20260507135843 47 299 0.0 0.0 0.00 0.29 0.27 97 1015.0
20260507135344 47 299 0.0 0.0 0.00 0.29 0.27 97 1014.9
20260507134838 47 299 0.0 0.0 0.00 0.29 0.27 97 1014.9
20260507134336 46 299 0.0 0.0 0.00 0.29 0.27 97 1014.9
20260507133828 46 299 0.0 0.0 0.00 0.29 0.27 97 1014.9
20260507133325 46 299 0.0 0.0 0.00 0.29 0.27 97 1014.8
20260507132813 46 299 0.0 0.0 0.00 0.29 0.27 97 1014.7
20260507132316 46 299 0.0 0.0 0.00 0.29 0.27 96 1014.7
20260507131816 46 299 0.0 0.0 0.00 0.29 0.27 96 1014.7
20260507131321 45 299 0.0 0.0 0.00 0.29 0.27 96 1014.7
20260507130809 45 299 0.0 0.0 0.00 0.29 0.27 96 1014.6
20260507130304 45 299 0.0 0.0 0.00 0.29 0.27 96 1014.4
20260507125759 45 299 0.0 0.0 0.00 0.29 0.27 96 1014.4
20260507125249 45 299 0.0 0.0 0.00 0.29 0.27 96 1014.4
20260507124748 45 299 0.0 0.0 0.00 0.29 0.27 96 1014.4
20260507124239 45 299 0.0 0.0 0.00 0.29 0.27 96 1014.3
20260507123740 45 299 0.0 0.0 0.00 0.29 0.27 96 1014.3
20260507123500 45 299 0.0 0.0 0.00 0.29 0.27 96 1014.3
20260507123224 45 299 0.0 0.0 0.00 0.29 0.27 96 1014.4
20260507122240 45 299 0.0 0.0 0.00 0.29 0.27 96 1014.3
20260507121741 45 299 0.0 0.0 0.00 0.29 0.27 96 1014.1
20260507121505 45 299 0.0 0.0 0.00 0.29 0.27 96 1014.1
20260507120728 45 299 0.0 0.0 0.00 0.29 0.27 96 1014.0
20260507120213 45 299 0.0 0.0 0.00 0.29 0.27 96 1014.0
20260507115711 45 299 0.0 0.0 0.00 0.29 0.27 96 1014.0
20260507115210 45 299 0.0 0.0 0.00 0.29 0.27 95 1013.9
20260507114710 45 299 0.0 0.0 0.00 0.29 0.27 95 1013.9
20260507114211 45 299 0.0 0.0 0.00 0.29 0.27 95 1014.0
20260507113937 45 299 0.0 0.0 0.00 0.29 0.27 95 1014.0
20260507113206 45 299 0.0 0.0 0.00 0.29 0.27 95 1013.9
20260507112702 45 299 0.0 0.0 0.00 0.29 0.27 95 1013.9
20260507112146 45 299 0.0 0.0 0.00 0.29 0.27 95 1013.9
20260507111644 45 299 0.0 0.0 0.00 0.29 0.27 95 1013.9
20260507111136 45 299 0.0 0.0 0.00 0.29 0.27 95 1013.9
20260507110637 45 299 0.0 0.0 0.00 0.29 0.27 95 1013.7
20260507110140 45 299 0.0 0.0 0.00 0.29 0.27 94 1013.8
20260507105637 45 299 0.0 0.0 0.00 0.29 0.27 94 1013.8
20260507105122 45 299 0.0 0.0 0.00 0.29 0.27 94 1013.8
20260507104836 45 299 0.0 0.0 0.00 0.29 0.27 94 1013.7
20260507104120 46 299 0.0 0.0 0.00 0.29 0.27 93 1013.6
20260507103611 46 299 0.0 0.0 0.00 0.29 0.27 94 1013.6
20260507103108 46 299 0.0 0.0 0.00 0.29 0.27 94 1013.6
20260507102607 46 299 0.0 0.0 0.00 0.29 0.27 94 1013.6
20260507102110 47 299 0.0 0.0 0.00 0.29 0.27 94 1013.6
20260507101806 47 299 0.0 0.0 0.00 0.29 0.27 94 1013.6
20260507101048 47 299 0.0 0.0 0.00 0.29 0.27 95 1013.7
20260507100549 47 299 0.0 0.0 0.00 0.29 0.27 95 1013.7
20260507100043 47 299 0.0 0.0 0.00 0.29 0.27 95 1013.7
20260507095538 47 299 0.0 0.0 0.00 0.29 0.27 94 1013.8
20260507095033 47 299 0.0 0.0 0.00 0.29 0.27 95 1013.8
20260507094532 48 299 0.0 0.0 0.00 0.29 0.27 95 1013.8
20260507094028 48 299 0.0 0.0 0.00 0.29 0.27 95 1013.8
20260507093515 48 299 0.0 0.0 0.00 0.29 0.27 94 1013.8
20260507093014 48 299 0.0 0.0 0.01 0.29 0.27 94 1013.8
20260507092813 48 299 0.0 0.0 0.04 0.29 0.27 95 1013.8
20260507092510 48 299 0.0 0.0 0.02 0.29 0.27 95 1013.8
20260507092445 48 299 0.0 0.0 0.05 0.29 0.27 95 1013.7
20260507091004 48 299 0.0 0.0 0.06 0.29 0.27 95 1013.6
20260507090500 48 299 0.0 0.0 0.07 0.29 0.27 95 1013.8
20260507090000 48 299 0.0 2.0 0.07 0.29 0.27 94 1013.6
20260507085455 49 299 0.0 2.0 0.08 0.29 0.27 94 1014.1
20260507084953 49 299 0.0 0.0 0.08 0.29 0.27 94 1014.4
20260507084656 49 299 0.0 0.0 0.10 0.29 0.27 94 1014.3
20260507083938 49 299 0.0 1.0 0.11 0.29 0.27 94 1014.1
20260507083652 49 299 0.0 2.0 0.12 0.29 0.27 94 1014.1
20260507082936 49 299 0.0 2.0 0.11 0.28 0.26 94 1014.5
20260507082707 49 299 0.0 2.0 0.10 0.26 0.24 94 1014.5
20260507081931 49 299 0.0 0.0 0.16 0.25 0.23 94 1014.9
20260507081432 49 299 0.0 0.0 0.21 0.23 0.22 94 1014.8
20260507081122 49 299 0.0 0.0 0.20 0.22 0.20 93 1014.6
20260507081011 49 299 0.0 0.0 0.21 0.23 0.21 94 1014.8
20260507075927 49 299 0.0 0.0 0.19 0.21 0.20 93 1014.5
20260507075425 49 299 0.0 0.0 0.19 0.21 0.19 93 1014.3
20260507074917 49 299 0.0 0.0 0.18 0.20 0.19 93 1014.3
20260507074413 49 299 0.0 0.0 0.17 0.19 0.17 92 1014.3
20260507073912 49 299 0.0 0.0 0.16 0.18 0.16 92 1014.0
20260507073412 49 299 0.0 3.0 0.15 0.17 0.16 92 1014.1
20260507072908 49 299 0.0 4.0 0.15 0.17 0.15 91 1014.1
20260507072452 49 322 1.0 4.0 0.12 0.14 0.13 91 1014.1
20260507071908 50 323 1.0 5.0 0.07 0.09 0.09 91 1014.0
20260507071403 49 316 1.0 5.0 0.00 0.02 0.00 91 1013.7
20260507070858 49 0 1.0 4.0 0.00 0.02 0.00 92 1013.8
20260507070359 49 279 0.0 2.0 0.00 0.02 0.00 92 1013.1
20260507065859 50 279 0.0 2.0 0.00 0.02 0.00 92 1012.6
20260507065359 50 279 0.0 2.0 0.00 0.02 0.00 91 1012.1
20260507064902 50 279 0.0 2.0 0.00 0.02 0.00 91 1011.9
20260507064349 50 279 0.0 0.0 0.00 0.02 0.00 91 1012.0
20260507063840 50 279 0.0 0.0 0.00 0.02 0.00 91 1012.1
20260507063333 50 279 0.0 1.0 0.00 0.02 0.00 91 1012.6
20260507062830 50 279 0.0 1.0 0.00 0.02 0.00 91 1012.5
20260507062330 50 279 0.0 1.0 0.00 0.02 0.00 91 1012.6
20260507061830 50 279 0.0 0.0 0.00 0.02 0.00 91 1012.6
20260507061548 50 279 0.0 0.0 0.00 0.02 0.00 91 1012.2
20260507060825 50 279 0.0 0.0 0.00 0.02 0.00 91 1012.6
20260507060321 50 279 0.0 0.0 0.00 0.02 0.00 90 1012.5
20260507060034 50 279 0.0 0.0 0.00 0.02 0.02 90 1012.4
20260507055524 51 279 0.0 1.0 0.00 0.02 0.02 90 1012.4
20260507054806 51 279 0.0 1.0 0.00 0.02 0.02 90 1012.2
20260507054305 51 279 0.0 0.0 0.00 0.02 0.02 89 1012.1
20260507053811 51 279 0.0 1.0 0.00 0.02 0.02 89 1012.0
20260507053302 51 279 0.0 1.0 0.00 0.02 0.02 88 1012.0
20260507052801 51 279 0.0 0.0 0.01 0.02 0.02 88 1011.9
20260507052306 52 279 0.0 0.0 0.02 0.02 0.02 87 1011.8
20260507051752 52 279 0.0 2.0 0.02 0.02 0.02 86 1011.8
20260507051253 52 279 0.0 2.0 0.02 0.02 0.02 85 1011.8
20260507051232 53 279 0.0 0.0 0.02 0.02 0.02 84 1011.8
20260507050247 53 279 0.0 3.0 0.02 0.02 0.02 83 1012.0
20260507045740 53 279 0.0 5.0 0.02 0.02 0.02 82 1012.0
20260507045237 53 296 2.0 5.0 0.02 0.02 0.02 80 1012.4
20260507044739 53 299 2.0 9.0 0.02 0.02 0.02 82 1012.0
20260507044238 53 9 2.0 9.0 0.02 0.02 0.02 80 1011.6
20260507043738 53 325 2.0 8.0 0.02 0.02 0.02 82 1011.8
20260507043238 53 5 2.0 8.0 0.02 0.02 0.02 81 1011.6
20260507042738 53 212 1.0 8.0 0.01 0.01 0.01 80 1011.5
20260507042234 53 330 2.0 8.0 0.00 0.00 0.00 73 1011.5
20260507041731 52 206 2.0 4.0 0.00 0.00 0.00 71 1011.6
20260507041447 52 292 0.0 2.0 0.00 0.00 0.00 76 1011.6
20260507040724 52 292 0.0 2.0 0.00 0.00 0.00 75 1011.4
20260507040701 52 292 0.0 1.0 0.00 0.00 0.00 74 1011.4
20260507035728 52 292 0.0 2.0 0.00 0.00 0.00 74 1011.5
20260507035429 52 292 0.0 2.0 0.00 0.00 0.00 74 1011.6
20260507034709 53 292 0.0 2.0 0.00 0.00 0.00 73 1011.5
20260507034159 53 292 0.0 2.0 0.00 0.00 0.00 73 1011.5
20260507033700 53 292 0.0 2.0 0.00 0.00 0.00 72 1011.4
20260507033200 53 292 0.0 2.0 0.00 0.00 0.00 71 1011.4
20260507032700 53 292 0.0 2.0 0.00 0.00 0.00 71 1011.4
20260507032422 54 292 0.0 1.0 0.00 0.00 0.00 70 1011.4
20260507031656 54 292 0.0 1.0 0.00 0.00 0.00 69 1011.4
20260507031158 55 292 0.0 2.0 0.00 0.00 0.00 68 1011.5
20260507030657 55 292 0.0 2.0 0.00 0.00 0.00 67 1011.5
20260507030416 56 292 0.0 0.0 0.00 0.00 0.00 66 1011.5
20260507025656 56 292 0.0 1.0 0.00 0.00 0.00 65 1011.5
20260507025157 57 292 0.0 2.0 0.00 0.00 0.00 64 1011.5
20260507024654 58 292 0.0 2.0 0.00 0.00 0.00 64 1011.5
20260507024151 58 292 0.0 0.0 0.00 0.00 0.00 61 1011.5
20260507023643 59 292 0.0 2.0 0.00 0.00 0.00 62 1011.5
20260507023136 60 292 0.0 2.0 0.00 0.00 0.00 61 1011.4
20260507022638 60 292 0.0 0.0 0.00 0.00 0.00 59 1011.4
20260507022137 60 292 0.0 0.0 0.00 0.00 0.00 60 1011.5
20260507021633 61 292 0.0 2.0 0.00 0.00 0.00 59 1011.5
20260507021346 61 292 0.0 3.0 0.00 0.00 0.00 58 1011.4
20260507020617 62 292 0.0 0.0 0.00 0.00 0.00 54 1011.2
20260507020110 62 292 0.0 0.0 0.00 0.00 0.00 53 1011.4
20260507015553 62 292 0.0 0.0 0.00 0.00 0.00 52 1011.2
20260507015321 62 292 0.0 1.0 0.00 0.00 0.00 51 1011.2
20260507015045 62 292 0.0 3.0 0.00 0.00 0.00 50 1011.2
20260507014052 62 322 1.0 6.0 0.00 0.00 0.00 49 1011.2
20260507013603 62 5 1.0 8.0 0.00 0.00 0.00 47 1011.2
20260507013054 63 273 3.0 8.0 0.00 0.00 0.00 47 1011.2
20260507012548 63 207 1.0 6.0 0.00 0.00 0.00 47 1011.4
20260507012311 63 248 1.0 3.0 0.00 0.00 0.00 47 1011.4
20260507011549 63 313 1.0 5.0 0.00 0.00 0.00 47 1011.5
20260507011313 63 326 2.0 5.0 0.00 0.00 0.00 46 1011.5
20260507010754 63 321 0.0 3.0 0.00 0.00 0.00 46 1011.6
20260507010024 64 321 0.0 4.0 0.00 0.00 0.00 47 1011.5
20260507005525 64 321 1.0 4.0 0.00 0.00 0.00 45 1011.5
20260507005248 64 334 1.0 4.0 0.00 0.00 0.00 45 1011.6
20260507004520 64 160 0.0 3.0 0.00 0.00 0.00 45 1011.5
20260507004020 64 195 0.0 7.0 0.00 0.00 0.00 46 1011.6
20260507003520 64 153 0.0 7.0 0.00 0.00 0.00 45 1011.7
20260507003023 64 0 0.0 7.0 0.00 0.00 0.00 44 1011.6
20260507002518 64 214 2.0 7.0 0.00 0.00 0.00 43 1011.6
20260507002008 64 319 1.0 6.0 0.00 0.00 0.00 44 1011.7
20260507001505 64 310 0.0 6.0 0.00 0.00 0.00 43 1011.6
20260507001006 64 340 0.0 7.0 0.00 0.00 0.00 43 1011.7
20260507000506 64 237 1.0 7.0 0.00 0.00 0.00 43 1011.7